Disclaimer

Please do not use the information listed here in-flight or in-navigation, as they are not provided to us by the airports but are provided by volunteers, so they might be outdated.

Search


Regions


Airport information page

Radio informations:
Tower (TWR) - 125.525 MHz
Ground (GND) - 369.225 MHz
DEP - 278.45 MHz
LONDON MIL - 299.975 MHz
Automatic Terminal Information Service (ATIS) - 242.475 MHz
Approach (APP) - 130.2 MHz

Airport informations:
Latitude: 52° 36' 45.21" N
Longitude: 000° 28' 35.23" W
Elevation: 273 feet - 83 meters
Operating hours: Remarks
Operating agency: Military
Timezone: UTC 0(+1DT) - Last Sunday in March to last Sunday in October
Fuel: JP-8, SemiKeroscene MIL Spec T-83133, without icing inhibitor

Runway information:
08/26 - 9052 x 200 feet< - >2759 x 61 meters

Recent METARs:
EGXT 221850Z AUTO 21006KT 4900 -RA FEW006/// BKN024/// 01/00 Q0996
EGXT 221950Z AUTO 22005KT 3600 BR FEW003/// BKN027/// 00/00 Q0996 RERA
EGXT 221950Z AUTO 22005KT 3600 BR FEW003/// BKN027/// 00/00 Q0996 RERA

Airport on the map: